Washington, VA

8:57 AM EDT on July 21, 2017 (GMT -0400)
Ronald Reagan Washington National

Weather History for KDCA - February, 2014

Change the Weather History Date:

Wednesday, February 19, 2014

  Actual Average Record
Temperature  
Mean Temperature 49 °F 40 °F  
Max Temperature 63 °F 48 °F 74 °F (1939)
Min Temperature 35 °F 32 °F 4 °F (1903)
Degree Days  
Heating Degree Days 16 25  
Month to date heating degree days 538 510  
Since 1 July heating degree days 2950 2890  
Cooling Degree Days 0 0  
Month to date cooling degree days 0 0  
Year to date cooling degree days 0 0  
Moisture  
Dew Point 36 °F    
Average Humidity 56    
Maximum Humidity 86    
Minimum Humidity 25    
Precipitation  
Precipitation 0.12 in 0.09 in 1.67 in (1927)
Month to date precipitation 3.81 1.78  
Year to date precipitation 6.39 4.59  
Snow  
Snow 0.00 in 0.20 in 14.00 in (1979)
Month to date snowfall 7.4 4.2  
Since 1 July snowfall 15.5 12.6  
Snow Depth 0.00 in    
Sea Level Pressure  
Sea Level Pressure 29.89 in    
Wind  
Wind Speed 9 mph (WSW)    
Max Wind Speed 23 mph    
Max Gust Speed 32 mph    
Visibility 9 miles    
Events Rain    
T = Trace of Precipitation, MM = Missing Value Source: NWS Daily Summary

Daily Weather History Graph

Daily Weather History Graph

Search for Another Location

Airport or City:

Trip Planner

Search our weather history database for the weather conditions in past years. The results will help you decide how hot, cold, wet, or windy it might be!

Date:

Astronomy

Feb. 19, 2014 Rise Set
Actual Time 6:54 AM EST 5:50 PM EST
Civil Twilight 6:27 AM EST 6:17 PM EST
Nautical Twilight 5:56 AM EST 6:48 PM EST
Astronomical Twilight 5:25 AM EST 7:19 PM EST
Moon 10:38 PM EST (2/19) 9:01 AM EST (2/19)
Length of Visible Light 11h 50m
Length of Day
10h 55m
Waning Gibbous, 80% of the Moon is Illuminated
Feb 19
Waning Gibbous
Feb 22
Last Quarter
Mar 1
New
Mar 8
First Quarter
Mar 16
Full

Hourly Weather History & Observations

Time (EST) Temp. Windchill Dew Point Humidity Pressure Visibility Wind Dir Wind Speed Gust Speed Precip Events Conditions
12:52 AM 37.0 °F 34.5 °F 30.9 °F 79% 30.07 in 10.0 mi NNE 3.5 mph - N/A   Overcast
1:52 AM 37.0 °F 32.4 °F 28.0 °F 70% 30.06 in 10.0 mi NNE 5.8 mph - N/A   Overcast
2:52 AM 37.0 °F 34.5 °F 28.9 °F 73% 30.02 in 10.0 mi NNE 3.5 mph - N/A   Overcast
3:52 AM 35.1 °F 29.3 °F 27.0 °F 72% 29.97 in 10.0 mi NNW 6.9 mph - N/A   Overcast
4:52 AM 36.0 °F - 28.9 °F 76% 29.94 in 10.0 mi Calm Calm - N/A   Mostly Cloudy
5:52 AM 36.0 °F - 28.9 °F 76% 29.91 in 10.0 mi Calm Calm - N/A   Mostly Cloudy
6:52 AM 37.9 °F 34.4 °F 30.9 °F 76% 29.88 in 10.0 mi South 4.6 mph - 0.00 in   Overcast
7:52 AM 41.0 °F 35.8 °F 28.9 °F 62% 29.86 in 10.0 mi SSW 8.1 mph - 0.00 in   Overcast
8:52 AM 46.0 °F 41.9 °F 34.0 °F 63% 29.85 in 10.0 mi SW 8.1 mph - 0.00 in Rain Light Rain
9:01 AM 46.4 °F 40.7 °F 33.8 °F 62% 29.86 in 3.0 mi SW 12.7 mph - 0.00 in Rain Light Rain
9:26 AM 44.6 °F 38.8 °F 37.4 °F 76% 29.86 in 6.0 mi SW 11.5 mph - 0.03 in Rain Light Rain
9:52 AM 44.1 °F 38.1 °F 37.9 °F 79% 29.85 in 6.0 mi SSW 11.5 mph - 0.07 in Rain Light Rain
10:52 AM 46.0 °F 44.8 °F 42.1 °F 86% 29.84 in 8.0 mi Variable 3.5 mph - 0.05 in Rain Light Rain
10:57 AM 46.4 °F 43.5 °F 42.8 °F 87% 29.82 in 9.0 mi SSW 5.8 mph - 0.00 in Rain Light Rain
11:20 AM 48.2 °F - 44.6 °F 87% 29.81 in 8.0 mi SSW 8.1 mph - 0.00 in   Overcast
11:42 AM 50.0 °F - 44.6 °F 82% 29.79 in 9.0 mi SSW 15.0 mph - 0.00 in   Mostly Cloudy
11:52 AM 51.1 °F - 46.0 °F 83% 29.79 in 10.0 mi SSW 16.1 mph - 0.00 in   Mostly Cloudy
12:11 PM 53.6 °F - 46.4 °F 77% 29.78 in 10.0 mi SW 13.8 mph - N/A   Scattered Clouds
12:52 PM 57.0 °F - 48.0 °F 72% 29.76 in 10.0 mi SSW 13.8 mph - N/A   Scattered Clouds
1:52 PM 53.1 °F - 46.0 °F 77% 29.72 in 10.0 mi South 13.8 mph - N/A   Scattered Clouds
2:52 PM 55.9 °F - 46.9 °F 72% 29.71 in 10.0 mi South 13.8 mph - N/A   Scattered Clouds
3:43 PM 62.6 °F - 48.2 °F 59% 29.72 in 10.0 mi SSW 13.8 mph - N/A   Mostly Cloudy
3:52 PM 62.1 °F - 48.0 °F 60% 29.74 in 10.0 mi SSW 8.1 mph 19.6 mph N/A   Mostly Cloudy
4:31 PM 62.6 °F - 44.6 °F 52% 29.79 in 10.0 mi WNW 10.4 mph - 0.00 in   Mostly Cloudy
4:52 PM 62.1 °F - 44.1 °F 52% 29.81 in 10.0 mi WNW 6.9 mph - 0.00 in   Mostly Cloudy
5:52 PM 61.0 °F - 33.1 °F 35% 29.86 in 10.0 mi WNW 15.0 mph 26.5 mph N/A   Partly Cloudy
6:52 PM 60.1 °F - 24.1 °F 25% 29.94 in 10.0 mi WNW 13.8 mph 25.3 mph N/A   Partly Cloudy
7:52 PM 57.0 °F - 26.1 °F 30% 30.00 in 10.0 mi WNW 15.0 mph 24.2 mph N/A   Clear
8:52 PM 55.0 °F - 28.9 °F 37% 30.06 in 10.0 mi WNW 13.8 mph 19.6 mph N/A   Clear
9:52 PM 53.1 °F - 28.9 °F 40% 30.11 in 10.0 mi NW 12.7 mph - N/A   Partly Cloudy
10:52 PM 51.1 °F - 28.9 °F 43% 30.14 in 10.0 mi NNW 6.9 mph - N/A   Scattered Clouds
11:52 PM 46.0 °F 44.8 °F 30.0 °F 54% 30.16 in 10.0 mi NW 3.5 mph - N/A   Scattered Clouds